Regional Weather Roundup
Issued by NWS Grand Forks, ND

Home | Current Version | Previous Version | Graphics & Text | Print | Product List | Glossary On
Versions: 1 2 3 4 5 6 7 8 9 10 11 12 13 14 15 16 17 18 19 20 21 22 23 24 25 26 27 28 29 30 31 32 33 34 35 36 37 38 39 40 41 42 43 44 45 46 47 48 49 50
000
ASUS43 KFGF 281110
RWRFGF
PRAIRIE TO PINES  WEATHER ROUNDUP
NATIONAL WEATHER SERVICE EASTERN NORTH DAKOTA/GRAND FORKS ND
600 AM CDT SUN MAY 28 2017

 **SATELLITE DATA USED TO AUGMENT SKY COVER AT AUTOMATED STATIONS**
 *****  WEATHER ACROSS EASTERN NORTH DAKOTA  *****

CITY           SKY/WX    TMP DP  RH WIND       PRES   REMARKS
GRAND FORKS    FAIR      50  47  89 NW7       29.73S
GRAND FRKS AFB CLOUDY    51  47  85 NW8       29.74S
DEVILS LAKE    MOCLDY    51  47  86 W10       29.80R
FARGO          FAIR      49  46  90 W6        29.75F
WAHPETON ARPT  FAIR      46  43  87 W6        29.78S
$$

 ***** WEATHER ACROSS CENTRAL AND WESTERN NORTH DAKOTA  *****

CITY           SKY/WX    TMP DP  RH WIND       PRES   REMARKS
BISMARCK       FAIR      47  42  83 W7        29.90R
MINOT          FAIR      52  42  69 W16       29.88R
JAMESTOWN      CLOUDY    53  45  74 NW9       29.79F
MINOT AFB      FAIR      49  44  81 NW14      29.87R
GARRISON         N/A     46  41  82 NW13      29.89R
WILLISTON      FAIR      48  35  60 E5        29.97R
DICKINSON      FAIR      41  36  82 W10       29.95S
HETTINGER      FAIR      41  36  82 NW6       29.99R
$$

 *****  OTHER AIRPORT OBSERVATIONS IN OUR AREA  *****

CITY           SKY/WX    TMP DP  RH WIND       PRES   REMARKS
WALHALLA       NOT AVBL
GRAFTON AIRPOR CLOUDY    52  50  93 NW10      29.75S
VALLEY CITY AR CLOUDY    50  48  93 W12       29.79F
CANDO          NOT AVBL
CAVALIER APRT  PTSUNNY   50  48  93 W7        29.74R
GWINNER        CLOUDY    52  46  82 MISG      29.79S
SHEYENNE NWR     N/A     44  44 100 W6        29.95S
ROLLA          CLOUDY    52  46  82 NW17G24   29.81R
 ***** THE ABOVE OBSERVATIONS ARE NON NWS ARE NOT QUALITY
       CONTROLLED AND MAY MIS-REPORT RAIN FOR SNOW...
$$

  *****  WEATHER ACROSS NORTHERN MINNESOTA  *****

CITY           SKY/WX    TMP DP  RH WIND       PRES   REMARKS
FLAG ISLAND    FAIR      54  46  76 NW14      29.64S
WARROAD        FAIR      52  46  82 SW3       29.68R
ROSEAU         FAIR      48  45  87 W7        29.68S
HALLOCK        MOCLDY    48  46  93 NW6       29.72S
THF RVR FALLS  FAIR      49  46  90 NW8       29.71S
BAUDETTE       NOT AVBL
WASKISH        MOCLDY    54  52  94 W12       29.65F
CROOKSTON      FAIR      48  46  93 NW9       29.73S
STEPHEN NDAWN    N/A     48  46  93 NW7         N/A
GREENBUSH NDAW   N/A     46  45  93 NW10        N/A
$$
  *****  WEATHER ACROSS CENTRAL AND WEST MINNESOTA  *****

CITY           SKY/WX    TMP DP  RH WIND       PRES   REMARKS
FOSSTON        CLOUDY    50  46  87 W12       29.72S
BEMIDJI        CLOUDY    48  47  95 W8        29.68F
PARK RAPIDS    LGT RAIN  50  45  83 W9        29.71S
ELBOW LAKE     FAIR      47  46  95 NW9       29.78R
WADENA         FAIR      48  46  93 W8        29.73R
DETROIT LAKES  MOCLDY    50  46  87 NW7       29.74F
MOORHEAD       FAIR      50  45  81 W9        29.76S
FERGUS FALLS   MOCLDY    48  48 100 NW9       29.76S
MORRIS MN      FAIR      50  46  87 W15       29.77F
STAPLES        FAIR      48  46  93 W10       29.73R
$$
  *****  WEATHER ELSEWHERE ACROSS MINNESOTA  *****

CITY           SKY/WX    TMP DP  RH WIND       PRES   REMARKS
DULUTH         FAIR      52  46  80 W8        29.67F
INTRNTL FALLS  MOCLDY    50  45  83 CALM      29.63F
ELY            FAIR      48  45  87 CALM      29.66F
CLOQUET        LGT RAIN  54  46  76 SW3       29.67F
WHEATON        FAIR      50  45  81 W8        29.81R
BRAINERD       FAIR      52  46  80 W7        29.71F
HIBBING        LGT RAIN  48  47  96 E6        29.65F
ALEXANDRIA     FAIR      49  46  90 W12       29.76R
SAINT CLOUD    FAIR      54  48  80 W9        29.72S
MINNEAPOLIS    MOCLDY    58  49  72 SW7       29.73F
$$

  *****  WEATHER ACROSS SOUTH DAKOTA  *****

CITY           SKY/WX    TMP DP  RH WIND       PRES   REMARKS
SIOUX FALLS    FAIR      51  48  89 W6        29.84S
BROOKINGS      FAIR      47  44  90 W7        29.84S
WATERTOWN      FAIR      48  44  86 NW5       29.82S
HURON          FAIR      46  43  89 W6        29.85S
SISSETON         N/A     50  45  83 NW9       29.79S
ABERDEEN       FAIR      45  40  82 W3        29.83F
MITCHELL       FAIR      51  45  79 W9        29.86S
PIERRE         FAIR      55  44  66 NW15      29.88S
MOBRIDGE       FAIR      48  41  76 NW8       29.87R
RAPID CITY     MOCLDY    52  38  58 W10       30.02S
$$

  *****  SOME WEATHER IN NEARBY STATES *****

CITY           SKY/WX    TMP DP  RH WIND       PRES   REMARKS
GLASGOW MT     FAIR      50  40  68 NW8       30.04S
GREAT FALLS MT MOCLDY    50  43  77 SW14      30.18F
CHEYENNE WY    FAIR      42  31  64 W12       30.25R
SCOTTSBLUFF NE FAIR      42  38  85 NW8       30.15S
OMAHA NE       FAIR      55  50  83 VRB3      29.88S
DES MOINES IA  FAIR      57  54  89 NW6       29.82F
DAVENPORT IA   CLOUDY    60  57  89 NW13      29.77R
CHICAGO IL     MOCLDY    59  52  77 CALM      29.72F
EAU CLAIRE WI  MOCLDY    54  52  93 SW3       29.73F
LA CROSSE WI   MOCLDY    58  56  93 CALM      29.76F
$$

  *****  SOME NATIONAL WEATHER *****

CITY           SKY/WX    TMP DP  RH WIND       PRES   REMARKS
LA GUARDIA NY  CLOUDY    59  57  93 E5        29.92R FOG
RALEIGH NC     PTSUNNY   68  66  93 CALM      29.81R
ATLANTA GA     CLOUDY    65  64  97 S8        29.96F
NEW ORLEANS LA MOCLDY    76  75  97 CALM      29.96R
OKLAHOMA CITY  FAIR      65  61  87 N14       29.93R
ALBUQUERQUE NM FAIR      60  27  28 CALM      30.19R
SALT LAKE CITY FAIR      53  41  63 S5        30.21S
LOS ANGELES CA FAIR      58  56  93 S5        29.99F
BOISE ID       FAIR      57  40  52 E9        30.17R
SEATTLE WA     FAIR      59  49  69 CALM      30.08S
$$

*** WEATHER ACROSS MANITOBA...SASKATCHEWAN AND ONTARIO ***
                ***ONTARIO***

CITY           SKY/WX    TMP DP  RH WIND       PRES   REMARKS
GERALDTON      MOCLDY    48  45  87 CALM      29.69S
THUNDER BAY    MOCLDY    46  45  93 VRB2      29.68F
SIOUX LOOKOUT  CLOUDY    50  46  87 S2        29.62F
TORONTO        CLOUDY    54  52  94 S6        29.86F
BIG TROUT LK   CLEAR     46  45  93 S3        29.62S
PICKLE LAKE    PTCLDY    48  43  81 S5        29.64
DRYDEN         CLOUDY    54  46  76 S7        29.61F
KENORA         MOCLDY    52  46  82 NW8       29.63S
$$
                *** MANITOBA***

CITY           SKY/WX    TMP DP  RH WIND       PRES   REMARKS
BRANDON        PTCLDY    48  45  87 W12       29.80S
DAUPHIN        CLOUDY    50  46  87 W12       29.76F
ISLAND LAKE    CLOUDY    50  50 100 CALM      29.60
PILOT MOUND      N/A     50  46  87 NW12        N/A
THE PAS        CLOUDY    43  41  93 NW10G18   29.79R
THOMPSON       LGT RAIN  39  37  93 N12G18    29.73S
WINNIPEG       MOCLDY    52  50  93 NW14      29.70F
LYNN LAKE      CLOUDY    39  37  93 N8        29.84S
CHURCHILL      CLOUDY    34  32  93 NE12      29.79S FOG
GILLAM         LGT RAIN  37  36  93 N12       29.69S FOG
$$
                ***SASKATCHEWAN***

CITY           SKY/WX    TMP DP  RH WIND       PRES   REMARKS
ESTEVAN        PTCLDY    45  41  87 W9        29.92S
KINDERSLEY     PTCLDY    46  39  76 N12       30.10R
LLOYDMINSTER   CLEAR     46  41  81 NW9       30.15R
PRINCE ALBERT  PTCLDY    45  41  87 NW6       29.99R
REGINA         MOCLDY    43  37  81 W10       29.94F
YORKTON          N/A     50  45  81 W15G21    29.85S
N. BATTLEFORD  CLEAR     45  39  81 N10       30.10R
LA RONGE       CLOUDY    50  46  87 NW10      29.96S
SASKATOON      PTCLDY    41  37  87 NW9       30.03R
SWIFT CURRENT  MOCLDY    48  39  71 W9        30.03S
$$
NOTE: THESE ARE AUTOMATED STATIONS WITH LIMITED QUALITY CONTROL
      "FAIR" INDICATES FEW OR NO CLOUDS BELOW 12,000 FEET WITH NO
      SIGNIFICANT WEATHER AND/OR OBSTRUCTIONS TO VISIBILITY.
      SKY/WX - SKY CONDITION AND SIGNIFICANT WEATHER.
      TMP - AIR TEMPERATURE.    DP   - DEWPOINT TEMPERATURE.
      RH  - RELATIVE HUMIDITY.  PRES - PRESSURE.
      HX  - HEAT INDEX.         WCI  - WIND CHILL INDEX.
$




USA.gov is the U.S. government's official web portal to all federal, state and local government web resources and services.